Home   Weather   51°20'N, 3°16'E   Past weeks
Flag for Belgium

Past Weather in 51°20'N, 3°16'E, Belgium — Yesterday and Last 2 Weeks

Currently: 46 °F. Partly sunny. (Weather station: Oostende Airport, Belgium). See more current weather

Past Weather in 51°20'N, 3°16'E — Graph

°F

51°20'N, 3°16'E Temperature Yesterday

Maximum temperature yesterday: 52 °F (at 1:50 pm)
Minimum temperature yesterday: 41 °F (at 7:50 am)
Average temperature yesterday: 48 °F

High & Low Weather Summary for the Past Weeks

 TemperatureHumidityPressure
High61 °F (Feb 15, 1:20 pm)100% (Feb 7, 8:50 am)30.48 "Hg (Feb 7, 8:50 am)
Low36 °F (Feb 8, 2:20 am)67% (Feb 13, 1:20 pm)28.97 "Hg (Feb 9, 4:50 am)
Average49 °F89%29.82 "Hg
* Reported Feb 6 7:20 am — Feb 21 7:20 am, 51°20'N, 3°16'E. Weather by CustomWeather, © 2024

Note: Actual official high and low records may vary slightly from our data, if they occured in-between our weather recording intervals... More about our weather records

51°20'N, 3°16'E Weather History for the Previous 24 Hours

Scroll right to see more
 ConditionsComfort  
Time TempWeatherWind HumidityBarometerVisibility
7:20 am
Wed, Feb 21
46 °FMostly cloudy.13 mph93%30.07 "HgN/A
6:50 am46 °FMostly cloudy.10 mph93%30.07 "HgN/A
6:20 am46 °FOvercast.10 mph93%30.09 "HgN/A
5:50 am46 °FMostly cloudy.10 mph93%30.09 "HgN/A
5:20 am46 °FOvercast.8 mph93%30.12 "HgN/A
4:50 am48 °FMostly cloudy.10 mph87%30.12 "HgN/A
4:20 am46 °FOvercast.9 mph93%30.12 "HgN/A
3:50 am48 °FOvercast.8 mph87%30.15 "HgN/A
3:20 am48 °FMostly cloudy.9 mph87%30.15 "HgN/A
2:50 am48 °FMostly cloudy.10 mph87%30.18 "HgN/A
2:20 am46 °FMostly cloudy.12 mph93%30.18 "HgN/A
1:50 am46 °FMostly cloudy.9 mph93%30.18 "HgN/A
12:20 am48 °FMostly cloudy.10 mph87%30.21 "HgN/A
11:50 pm
Tue, Feb 20
48 °FClear.13 mph87%30.24 "Hg10 mi
11:20 pm48 °FMostly cloudy.12 mph87%30.24 "HgN/A
10:50 pm50 °FMostly cloudy.13 mph82%30.24 "HgN/A
10:20 pm50 °FMostly cloudy.13 mph82%30.27 "HgN/A
9:50 pm48 °FMostly cloudy.16 mph94%30.24 "HgN/A
9:20 pm48 °FPassing clouds.16 mph94%30.24 "HgN/A
8:50 pm50 °FPartly cloudy.17 mph88%30.27 "HgN/A
8:20 pm48 °FLow clouds.16 mph94%30.27 "HgN/A
7:50 pm50 °FMostly cloudy.17 mph88%30.27 "HgN/A
7:20 pm50 °FPassing clouds.16 mph88%30.27 "HgN/A
6:50 pm50 °FPassing clouds.16 mph88%30.27 "HgN/A
6:20 pm50 °FPartly cloudy.17 mph88%30.27 "HgN/A
5:50 pm50 °FPartly sunny.16 mph88%30.27 "HgN/A
5:20 pm50 °FBroken clouds.18 mph82%30.30 "HgN/A
4:50 pm50 °FPartly sunny.20 mph82%30.27 "HgN/A
4:20 pm52 °FPassing clouds.18 mph77%30.30 "HgN/A
3:50 pm52 °FScattered clouds.17 mph77%30.30 "HgN/A
3:20 pm52 °FScattered clouds.18 mph77%30.30 "HgN/A
2:50 pm52 °FPassing clouds.20 mph77%30.30 "HgN/A
1:50 pm52 °FPassing clouds.16 mph77%30.33 "HgN/A
1:20 pm50 °FPassing clouds.15 mph88%30.33 "HgN/A
12:50 pm50 °FScattered clouds.13 mph88%30.36 "HgN/A
12:20 pm48 °FScattered clouds.12 mph94%30.39 "HgN/A
11:50 am48 °FScattered clouds.15 mph94%30.39 "Hg5 mi
11:20 am48 °FScattered clouds.14 mph87%30.39 "Hg5 mi
10:50 am46 °FFog.13 mph93%30.39 "Hg3 mi
10:20 am46 °FFog.15 mph93%30.39 "Hg3 mi
9:50 am45 °FSunny.12 mph93%30.39 "Hg10 mi
9:20 am43 °FSunny.8 mph93%30.39 "Hg10 mi
8:50 am43 °FSunny.7 mph87%30.39 "Hg10 mi
8:20 am41 °FSunny.7 mph93%30.39 "Hg10 mi
Weather by CustomWeather, © 2024

See weather overview